KT2UU-13 Weather Reports


time (UTC)temp
C
wind
direction
speed
KPH
gust
KPH
rain 1hr
cm
rain 24hr
cm
rain mn
cm
humidity
%
barometer
mb
20260508020412 13 204 0.0 0.0 0.00 3.40 3.40 98 1016.4
20260508015909 13 225 0.0 0.0 0.00 3.40 3.40 98 1016.1
20260508015407 14 225 0.0 0.0 0.00 3.40 3.40 98 1016.2
20260508014903 14 225 0.0 0.0 0.00 3.40 3.40 98 1016.0
20260508014400 14 225 0.0 0.0 0.00 3.40 3.40 98 1015.9
20260508013855 14 225 0.0 0.0 0.00 3.40 3.40 98 1015.8
20260508013352 14 225 0.0 0.0 0.00 3.40 3.40 97 1015.7
20260508012849 14 225 0.0 0.0 0.00 3.40 3.40 97 1015.5
20260508012346 14 225 0.0 0.0 0.00 3.40 3.40 96 1015.6
20260508011844 14 225 0.0 0.0 0.00 3.40 3.40 96 1015.5
20260508011342 14 225 0.0 0.0 0.00 3.40 3.40 96 1015.6
20260508010839 15 225 0.0 0.0 0.00 3.40 3.40 95 1015.5
20260508010336 15 225 0.0 0.0 0.00 3.40 3.40 95 1015.6
20260508005833 15 225 0.0 0.0 0.00 3.40 3.40 95 1015.4
20260508005330 15 225 0.0 0.0 0.00 3.40 3.40 94 1015.5
20260508004826 15 225 0.0 0.0 0.00 3.40 3.40 94 1015.4
20260508004322 15 225 0.0 0.0 0.00 3.40 3.40 94 1015.2
20260508003819 16 225 0.0 0.0 0.00 3.40 3.40 93 1015.3
20260508003316 16 225 0.0 0.0 0.00 3.40 3.40 93 1015.4
20260508002813 16 225 0.0 0.0 0.00 3.40 3.40 92 1015.2
20260508002310 16 225 0.0 0.0 0.00 3.40 3.40 92 1015.4
20260508001806 16 225 0.0 0.0 0.00 3.40 3.40 91 1015.3
20260508001302 17 225 0.0 0.0 0.00 3.40 3.40 89 1015.3
20260508000758 17 225 0.0 0.0 0.00 3.40 3.40 87 1015.1
20260508000257 17 225 0.0 0.0 0.00 3.40 3.40 86 1015.1
20260507235751 17 225 0.0 0.0 0.00 3.40 3.40 84 1014.9
20260507235249 17 225 0.0 0.0 0.00 3.40 3.40 83 1014.8
20260507234746 17 225 0.0 0.0 0.00 3.40 3.40 82 1014.8
20260507234242 18 225 0.0 0.0 0.00 3.40 3.40 81 1014.6
20260507233739 18 225 0.0 0.0 0.00 3.40 3.40 80 1014.6
20260507233237 18 225 0.0 0.0 0.00 3.40 3.40 80 1014.8
20260507232734 18 225 0.0 0.0 0.00 3.40 3.40 77 1014.9
20260507232231 18 206 0.0 0.0 0.00 3.40 3.40 77 1014.7
20260507231727 18 225 0.0 0.0 0.00 3.40 3.40 76 1014.6
20260507231225 18 225 0.0 1.6 0.00 3.40 3.40 75 1014.7
20260507230721 18 271 1.6 3.2 0.00 3.40 3.40 74 1014.7
20260507230219 18 252 1.6 3.2 0.00 3.40 3.40 75 1014.6
20260507225718 18 239 0.0 1.6 0.00 3.40 3.40 75 1014.6
20260507225215 18 251 0.0 3.2 0.00 3.40 3.40 75 1014.5
20260507224710 18 206 1.6 3.2 0.00 3.40 3.40 74 1014.7
20260507224207 18 266 3.2 4.8 0.00 3.40 3.40 74 1014.7
20260507223703 18 235 1.6 6.4 0.00 3.40 3.40 73 1014.4
20260507223201 19 197 1.6 6.4 0.00 3.40 3.40 72 1014.5
20260507222657 19 264 0.0 4.8 0.00 3.40 3.40 74 1014.5
20260507222153 19 236 3.2 4.8 0.00 3.40 3.40 73 1014.6
20260507221650 19 229 1.6 1.6 0.00 3.40 3.40 71 1014.6
20260507221146 18 227 4.8 6.4 0.00 3.40 3.40 71 1014.3
20260507220643 19 227 6.4 9.7 0.00 3.40 3.40 70 1014.6
20260507220142 19 155 3.2 9.7 0.00 3.40 3.40 71 1014.8
20260507215637 19 246 3.2 11.3 0.00 3.40 3.40 70 1014.8
20260507215135 19 257 1.6 6.4 0.00 3.40 3.40 70 1014.7
20260507214632 20 215 3.2 11.3 0.00 3.40 3.40 69 1014.4
20260507214128 19 254 6.4 11.3 0.00 3.40 3.40 70 1014.6
20260507213625 20 250 4.8 9.7 0.00 3.40 3.40 69 1014.7
20260507213122 20 236 6.4 12.9 0.00 3.40 3.40 69 1014.4
20260507212618 20 262 9.7 16.1 0.00 3.40 3.40 68 1014.3
20260507212115 20 115 1.6 4.8 0.00 3.40 3.40 72 1014.3
20260507211612 20 234 4.8 4.8 0.00 3.40 3.40 69 1014.2
20260507211107 19 246 0.0 1.6 0.00 3.40 3.40 71 1014.1
20260507210605 19 273 3.2 9.7 0.00 3.40 3.40 71 1014.0
20260507205558 20 255 6.4 12.9 0.00 3.40 3.40 69 1014.2
20260507205054 20 279 3.2 6.4 0.00 3.40 3.40 69 1014.1
20260507204551 20 336 1.6 9.7 0.00 3.40 3.40 72 1014.1
20260507204048 20 122 1.6 4.8 0.00 3.40 3.40 71 1014.0
20260507203546 19 340 0.0 3.2 0.00 3.40 3.40 75 1013.8
20260507203043 19 233 1.6 3.2 0.00 3.40 3.40 72 1013.8
20260507202539 19 222 0.0 3.2 0.00 3.40 3.40 74 1013.7
20260507202035 19 283 0.0 4.8 0.00 3.40 3.40 73 1013.8
20260507201531 19 194 3.2 3.2 0.00 3.40 3.40 73 1014.1
20260507201027 20 198 1.6 4.8 0.00 3.40 3.40 70 1014.1
20260507200523 20 219 3.2 9.7 0.00 3.40 3.40 68 1013.9
20260507200019 20 250 4.8 9.7 0.00 3.40 3.40 69 1013.9
20260507195517 20 186 3.2 9.7 0.00 3.40 3.40 74 1014.0
20260507195014 20 223 9.7 12.9 0.00 3.40 3.40 70 1014.1
20260507194510 19 235 6.4 6.4 0.00 3.40 3.40 72 1014.0
20260507194007 19 249 1.6 9.7 0.00 3.40 3.40 74 1014.2
20260507193504 19 264 1.6 4.8 0.00 3.40 3.40 74 1014.1
20260507193001 20 191 6.4 12.9 0.00 3.40 3.40 74 1014.3
20260507192456 19 236 6.4 14.5 0.00 3.40 3.40 74 1014.3
20260507191954 19 250 3.2 6.4 0.00 3.40 3.40 74 1014.4
20260507191449 18 296 4.8 9.7 0.00 3.40 3.40 77 1014.3
20260507190946 18 201 6.4 9.7 0.00 3.40 3.40 78 1014.6
20260507190444 19 204 6.4 9.7 0.00 3.40 3.40 76 1014.3
20260507185943 19 200 1.6 6.4 0.00 3.40 3.40 78 1014.3
20260507185439 19 208 3.2 3.2 0.00 3.40 3.40 77 1014.2
20260507184936 19 255 1.6 6.4 0.00 3.40 3.40 78 1014.5
20260507184434 18 266 1.6 14.5 0.00 3.40 3.40 77 1014.5
20260507183932 19 261 3.2 4.8 0.00 3.40 3.40 76 1014.6
20260507183428 19 250 1.6 3.2 0.00 3.40 3.40 79 1014.5
20260507182926 19 179 3.2 9.7 0.00 3.40 3.40 79 1014.4
20260507182421 18 279 1.6 1.6 0.00 3.40 3.40 79 1014.4
20260507181918 18 262 0.0 14.5 0.00 3.40 3.40 81 1014.5
20260507181414 18 185 3.2 4.8 0.00 3.40 3.40 80 1014.7
20260507180911 17 211 6.4 11.3 0.00 3.40 3.40 82 1014.8
20260507180407 17 247 4.8 6.4 0.00 3.40 3.40 81 1014.7
20260507175903 18 190 6.4 11.3 0.00 3.40 3.40 82 1014.9
20260507175400 17 122 1.6 9.7 0.00 3.40 3.40 85 1014.8
20260507174858 17 248 0.0 6.4 0.00 3.40 3.40 84 1014.8
20260507174355 16 249 1.6 6.4 0.00 3.40 3.40 86 1014.7
20260507173853 16 5 4.8 12.9 0.00 3.40 3.40 86 1015.0
20260507173349 16 207 3.2 9.7 0.00 3.40 3.40 85 1014.8
20260507172846 16 187 4.8 6.4 0.00 3.40 3.40 87 1014.9
20260507172342 16 220 0.0 6.4 0.00 3.40 3.40 87 1014.7
20260507171838 16 353 3.2 4.8 0.00 3.40 3.40 88 1014.6
20260507171335 15 350 0.0 3.2 0.00 3.40 3.40 90 1014.9
20260507170832 15 271 3.2 4.8 0.00 3.40 3.40 90 1014.9
20260507170329 15 261 4.8 9.7 0.00 3.40 3.40 91 1014.9
20260507165825 15 263 1.6 6.4 0.00 3.40 3.40 92 1015.2
20260507165321 14 208 3.2 11.3 0.00 3.40 3.40 94 1015.1
20260507164817 14 335 6.4 12.9 0.00 3.40 3.40 94 1015.1
20260507164314 15 211 6.4 12.9 0.00 3.40 3.40 94 1015.1
20260507163811 15 252 3.2 6.4 0.00 3.40 3.40 94 1015.1
20260507163309 15 235 6.4 11.3 0.00 3.40 3.40 94 1015.1
20260507162805 15 205 3.2 6.4 0.00 3.40 3.40 95 1014.9
20260507162301 15 194 3.2 9.7 0.00 3.40 3.40 94 1014.7
20260507161758 15 238 1.6 12.9 0.00 3.40 3.40 95 1014.7
20260507161254 15 251 8.0 11.3 0.00 3.40 3.40 94 1014.7
20260507160750 15 197 3.2 9.7 0.00 3.40 3.40 95 1014.6
20260507160247 15 226 6.4 11.3 0.00 3.40 3.40 95 1014.2
20260507155743 15 233 4.8 12.9 0.00 3.40 3.40 95 1014.4
20260507155239 15 259 3.2 9.7 0.00 3.40 3.40 96 1014.2
20260507154736 15 232 6.4 11.3 0.00 3.40 3.40 97 1014.3
20260507154234 15 317 4.8 11.3 0.00 3.40 3.40 97 1014.2
20260507153730 15 173 3.2 4.8 0.00 3.40 3.40 99 1014.3
20260507153226 15 231 1.6 4.8 0.00 3.40 3.40 99 1014.2
20260507152723 15 183 1.6 3.2 0.00 3.40 3.40 99 1014.0
20260507152219 15 224 3.2 4.8 0.00 3.40 3.40 99 1014.1
20260507151715 15 310 1.6 6.4 0.00 3.40 3.40 99 1014.0
20260507151212 15 130 0.0 3.2 0.00 3.40 3.40 99 1014.1
20260507150709 14 246 0.0 4.8 0.00 3.40 3.40 99 1013.9
20260507150206 14 234 3.2 16.1 0.00 3.40 3.40 99 1014.1
20260507145701 14 289 3.2 4.8 0.00 3.40 3.40 99 1014.0
20260507145158 14 249 1.6 4.8 0.00 3.40 3.40 99 1014.0
20260507144655 14 245 3.2 9.7 0.00 3.40 3.40 99 1013.9
20260507144153 14 218 1.6 12.9 0.00 3.40 3.40 99 1013.8
20260507143650 14 298 0.0 6.4 0.00 3.40 3.40 99 1013.8
20260507143147 14 221 3.2 4.8 0.00 3.40 3.40 99 1013.9
20260507142642 15 170 11.3 14.5 0.00 3.40 3.40 99 1013.8
20260507142139 15 265 4.8 6.4 0.00 3.40 3.40 99 1014.2
20260507141636 14 213 1.6 11.3 0.00 3.40 3.40 99 1014.3
20260507141132 14 217 1.6 4.8 0.00 3.40 3.40 99 1014.1
20260507140629 14 265 8.0 11.3 0.00 3.40 3.40 99 1014.2
20260507140126 14 266 4.8 6.4 0.00 3.40 3.40 99 1014.1
20260507135623 14 298 1.6 9.7 0.00 3.40 3.40 99 1014.0
20260507135121 14 346 0.0 9.7 0.00 3.40 3.40 99 1013.8
20260507134617 14 202 1.6 11.3 0.00 3.40 3.40 99 1013.9
20260507134113 15 233 6.4 9.7 0.13 3.40 3.40 99 1014.1
20260507133609 15 229 4.8 9.7 0.13 3.40 3.40 99 1014.0
20260507133107 15 171 8.0 9.7 0.00 3.38 3.38 99 1013.7
20260507132603 15 217 3.2 6.4 0.00 3.38 3.38 99 1013.7
20260507132100 15 197 1.6 9.7 0.00 3.38 3.38 99 1013.6
20260507131557 15 225 4.8 11.3 0.00 3.38 3.38 99 1013.5
20260507131054 15 23 1.6 11.3 0.00 3.38 3.38 99 1013.4
20260507130551 15 242 3.2 6.4 0.00 3.38 3.38 99 1013.4
20260507130049 15 237 3.2 12.9 0.00 3.38 3.38 99 1013.1
20260507125547 16 230 0.0 6.4 0.00 3.38 3.38 99 1013.1
20260507125039 15 264 3.2 4.8 0.00 3.38 3.38 99 1012.9
20260507124535 16 250 4.8 9.7 0.00 3.38 3.38 99 1012.9
20260507124033 16 220 3.2 6.4 0.00 3.38 3.38 99 1012.8
20260507123531 16 220 1.6 4.8 0.00 3.38 3.38 99 1012.7
20260507123027 16 242 3.2 9.7 0.00 3.38 3.38 99 1012.3
20260507122522 16 241 0.0 4.8 0.00 3.38 3.38 99 1012.0
20260507122019 16 244 0.0 4.8 0.00 3.38 3.38 99 1012.3
20260507121514 16 221 1.6 1.6 0.00 3.38 3.38 99 1012.3
20260507121010 16 301 0.0 0.0 0.30 3.38 3.38 99 1012.6
20260507120507 16 233 3.2 6.4 0.61 3.38 3.38 99 1012.8
20260507120005 16 248 0.0 4.8 0.61 3.30 3.30 99 1011.8
20260507115459 16 243 1.6 3.2 0.79 3.25 3.25 99 1012.4
20260507114955 16 219 0.0 0.0 0.79 3.20 3.20 99 1012.9
20260507114451 16 242 0.0 0.0 0.43 3.12 3.12 99 1013.0
20260507113944 16 239 1.6 3.2 0.13 3.07 3.07 99 1013.1
20260507113441 16 260 3.2 4.8 0.18 3.05 3.05 99 1012.8
20260507112938 16 235 0.0 1.6 0.30 3.05 3.05 99 1012.7
20260507112435 16 236 0.0 4.8 0.43 3.02 3.02 99 1012.4
20260507111932 16 259 3.2 4.8 1.07 2.97 2.97 99 1012.1
20260507111430 16 346 0.0 4.8 2.29 2.92 2.92 99 1012.0
20260507110926 16 218 0.0 3.2 1.07 2.69 2.69 99 1012.4
20260507110422 16 242 3.2 11.3 0.30 2.54 2.54 99 1013.0
20260507105919 16 257 3.2 6.4 0.13 2.51 2.51 99 1012.5
20260507105416 16 299 0.0 0.0 0.00 2.49 2.49 99 1012.0
20260507104912 16 252 0.0 3.2 0.00 2.49 2.49 99 1011.5
20260507104409 16 244 1.6 3.2 0.00 2.49 2.49 99 1011.3
20260507103905 16 351 0.0 1.6 0.00 2.49 2.49 99 1011.2
20260507103402 16 236 0.0 0.0 0.00 2.49 2.49 99 1011.4
20260507102858 16 193 0.0 1.6 0.00 2.49 2.49 99 1011.5
20260507102354 16 193 0.0 1.6 0.00 2.49 2.49 99 1011.5
20260507101850 16 283 0.0 1.6 0.00 2.49 2.49 99 1011.6
20260507101345 16 210 1.6 3.2 0.00 2.49 2.49 99 1011.8
20260507100842 16 237 0.0 3.2 0.18 2.49 2.49 99 1012.0
20260507100341 16 340 0.0 1.6 0.30 2.49 2.49 99 1011.5
20260507095838 16 340 1.6 1.6 1.68 2.46 2.46 99 1011.8
20260507095335 17 319 1.6 3.2 4.93 2.44 2.44 99 1012.2
20260507094832 17 212 3.2 6.4 3.96 2.13 2.13 99 1012.7
20260507094328 17 232 6.4 9.7 0.71 1.57 1.57 99 1013.5
20260507093825 17 232 6.4 16.1 0.00 1.45 1.45 99 1012.8
20260507093324 17 241 3.2 6.4 0.18 1.45 1.45 99 1012.0
20260507092821 17 349 0.0 1.6 0.48 1.45 1.45 99 1011.0
20260507092318 17 345 0.0 0.0 0.48 1.40 1.40 99 1011.0
20260507091814 17 341 0.0 1.6 0.61 1.37 1.37 99 1011.3
20260507091311 17 223 0.0 0.0 0.48 1.32 1.32 99 1011.6
20260507090805 17 228 0.0 1.6 0.00 1.24 1.24 99 1012.0
20260507090302 17 245 0.0 1.6 0.00 1.24 1.24 99 1011.8
20260507085759 17 245 0.0 0.0 0.13 1.24 1.24 99 1011.4
20260507085256 17 246 0.0 0.0 0.13 1.24 1.24 99 1012.0
20260507084754 17 252 0.0 0.0 0.00 1.22 1.22 99 1011.9
20260507084250 17 252 1.6 1.6 0.00 1.22 1.22 99 1011.9
20260507083748 17 325 0.0 0.0 0.00 1.22 1.22 99 1011.6
20260507083244 17 325 0.0 0.0 0.18 1.22 1.22 99 1011.4
20260507082740 17 305 0.0 0.0 0.18 1.22 1.22 99 1011.4
20260507082236 17 304 0.0 0.0 0.00 1.19 1.19 99 1011.8
20260507081733 17 243 0.0 1.6 0.00 1.19 1.19 99 1012.1
20260507081229 17 247 0.0 1.6 0.13 1.19 1.19 99 1011.9
20260507080726 17 237 0.0 0.0 0.13 1.19 1.19 99 1012.2
20260507080222 17 6 1.6 1.6 0.18 1.17 1.17 99 1011.8
20260507075717 17 6 0.0 0.0 0.18 1.17 1.17 99 1011.6
20260507075214 17 6 0.0 0.0 0.00 1.14 1.14 99 1011.7
20260507074710 17 6 0.0 0.0 0.00 1.14 1.14 99 1012.0
20260507074209 16 6 0.0 0.0 0.00 1.14 1.14 99 1011.8
20260507073705 17 6 0.0 0.0 0.13 1.14 1.14 99 1012.0
20260507073201 17 6 0.0 0.0 0.30 1.14 1.14 99 1011.9
20260507072659 17 6 0.0 0.0 0.30 1.12 1.12 99 1012.0
20260507072156 17 4 0.0 0.0 0.13 1.09 1.09 99 1012.2
20260507071654 17 2 0.0 1.6 0.18 1.07 1.07 99 1012.2
20260507071150 17 2 0.0 0.0 0.36 1.07 1.07 99 1012.0
20260507070647 17 0 0.0 0.0 0.30 1.04 1.04 99 1012.1
20260507070144 17 0 0.0 0.0 0.61 1.02 1.02 99 1012.4
20260507065640 17 4 0.0 1.6 1.68 0.99 0.99 99 1012.1
20260507065137 17 9 1.6 1.6 2.77 0.89 0.89 99 1011.6
20260507064635 17 342 0.0 1.6 1.98 0.71 0.71 99 1013.2
20260507064133 17 349 0.0 0.0 0.48 0.43 0.43 99 1012.9
20260507063630 17 348 0.0 0.0 0.48 0.38 0.38 99 1013.1
20260507063127 17 348 0.0 1.6 0.71 0.36 0.36 99 1012.5
20260507062624 17 341 0.0 0.0 0.61 0.30 0.30 99 1012.9
20260507062122 17 227 0.0 0.0 0.30 0.25 0.25 99 1013.5
20260507061619 17 232 1.6 3.2 0.13 0.20 0.20 99 1013.4
20260507061117 17 212 0.0 1.6 0.43 0.20 0.20 99 1013.0
20260507060615 17 211 0.0 0.0 0.48 0.18 0.18 99 1013.6
20260507060111 17 211 1.6 3.2 0.30 0.13 0.13 99 1013.7
20260507055606 17 211 0.0 0.0 0.30 0.10 0.10 99 1013.4
20260507055103 17 211 0.0 0.0 0.18 0.08 0.08 99 1013.1
20260507054559 17 211 0.0 1.6 0.00 0.05 0.05 99 1013.4
20260507054056 17 211 0.0 0.0 0.00 0.05 0.05 99 1013.4
20260507053554 17 211 1.6 3.2 0.00 0.05 0.05 99 1013.5
20260507053052 17 211 0.0 1.6 0.00 0.05 0.05 99 1014.2
20260507052550 17 211 0.0 0.0 0.00 0.05 0.05 99 1013.9
20260507052046 17 344 1.6 1.6 0.00 0.05 0.05 99 1014.2
20260507051544 17 344 0.0 0.0 0.00 0.05 0.05 99 1014.1
20260507051041 17 344 0.0 0.0 0.00 0.05 0.05 99 1014.0
20260507050537 17 344 1.6 1.6 0.00 0.05 0.05 99 1013.5
20260507050034 17 246 0.0 0.0 0.18 0.05 0.05 99 1014.5
20260507045530 17 226 1.6 3.2 0.18 0.05 0.05 99 1014.1
20260507045027 17 240 0.0 0.0 0.00 0.03 0.03 99 1014.2
20260507044524 17 240 0.0 0.0 0.00 0.03 0.03 99 1014.2
20260507044021 17 240 0.0 0.0 0.00 0.03 0.03 99 1014.1
20260507043517 17 240 0.0 0.0 0.00 0.03 0.03 99 1014.1
20260507043015 17 240 0.0 0.0 0.00 0.03 0.03 99 1014.0
20260507042510 17 240 0.0 1.6 0.00 0.03 0.03 99 1013.9
20260507042006 17 240 0.0 1.6 0.00 0.03 0.03 99 1013.5
20260507041503 17 256 0.0 3.2 0.00 0.03 0.03 99 1013.8
20260507041000 17 243 1.6 3.2 0.13 0.03 0.03 99 1014.0
20260507040456 17 243 0.0 0.0 0.00 0.00 0.00 99 1014.1
20260507035951 17 243 0.0 0.0 0.00 3.38 3.38 99 1014.1
20260507035448 17 243 0.0 0.0 0.00 3.38 3.38 99 1014.1
20260507034945 17 243 0.0 0.0 0.00 3.38 3.38 99 1014.1
20260507034442 17 243 0.0 0.0 0.00 3.38 3.38 99 1013.9
20260507033940 17 243 0.0 0.0 0.00 3.38 3.38 99 1013.8
20260507033438 17 243 0.0 0.0 0.00 3.38 3.38 99 1013.5
20260507032934 17 243 0.0 0.0 0.00 3.38 3.38 99 1013.7
20260507032432 17 243 0.0 0.0 0.00 3.38 3.38 99 1013.8
20260507031927 17 243 0.0 0.0 0.00 3.38 3.38 99 1013.7
20260507031426 17 243 0.0 0.0 0.00 3.38 3.38 99 1013.8
20260507030921 17 243 0.0 0.0 0.00 3.38 3.38 99 1013.9
20260507030418 17 243 0.0 0.0 0.00 3.38 3.38 99 1014.0
20260507025915 17 251 0.0 1.6 0.00 3.38 3.38 99 1013.9
20260507025413 17 251 0.0 0.0 0.00 3.38 3.38 99 1013.8
20260507024910 17 251 0.0 1.6 0.00 3.38 3.38 99 1014.3
20260507024407 17 251 0.0 0.0 0.00 3.38 3.38 99 1014.3
20260507023903 17 258 0.0 0.0 0.00 3.38 3.38 99 1014.3
20260507023400 17 1 0.0 1.6 0.00 3.38 3.38 99 1014.2
20260507022857 17 1 0.0 0.0 0.00 3.38 3.38 99 1014.1
20260507022354 17 1 0.0 0.0 0.00 3.38 3.38 99 1014.7
20260507021850 17 1 0.0 0.0 0.00 3.38 3.38 99 1014.3
20260507021345 17 1 0.0 0.0 0.00 3.38 3.38 99 1014.0
20260507020843 17 1 0.0 0.0 0.00 3.38 3.38 99 1014.1